951  
ASUS42 KMHX 051325  
RWRMHX  
WEATHER ROUNDUP FOR EASTERN NORTH CAROLINA  
NATIONAL WEATHER SERVICE NEWPORT/MOREHEAD CITY NC  
800 AM EST SUN DEC 05 2021  
 
NOTE: "FAIR" INDICATES FEW OR NO CLOUDS BELOW 12,000 FEET  
WITH NO SIGNIFICANT WEATHER AND/OR S TO VISIBILITY
 
 
NCZ015>017-031-032-045>047-102-103-051400-  
NORTH COAST  
 
CITY SKY/WX TMP DP RH WIND PRES REMARKS
 
EDENTON PTCLDY 51 50 96 NE7 30.30S  
ELIZABETH CITY PTCLDY 50 48 93 NE6 30.30R  
KITTY HAWK MOSUNNY 57 43 60 NE9G18 30.28R  
MANTEO PTCLDY 56 45 65 NE14 30.29R  
 

 
 
NCZ045>047-081-094-103-104-051400-  
CENTRAL COAST  
 
CITY SKY/WX TMP DP RH WIND PRES REMARKS
 
FRISCO MOSUNNY 61 54 77 NE9 30.24R  
 

 
 
NCZ095-097-098-100-101-051400-  
SOUTHERN COAST  
 
CITY SKY/WX TMP DP RH WIND PRES REMARKS
 
PINEY ISLAND N/A 58 51 78 NE12 30.24R  
BEAUFORT PTCLDY 54 51 90 NE9 30.22S  
CAPE CARTERET PTCLDY 55 50 83 NE9 30.23R  
JACKSONVILLE PTCLDY 50 48 93 NE6 30.23S  
WILMINGTON PTCLDY 51 49 92 NE3 30.21R  
 

 
 
NCZ011>013-027>030-043-044-078>080-089-090>093-098-051400-  
COASTAL PLAIN  
 
CITY SKY/WX TMP DP RH WIND PRES REMARKS
 
AHOSKIE PTCLDY 46 43 89 NE5 30.32R  
ROCKY MOUNT NOT AVBL  
GREENVILLE PTCLDY 48 46 93 NE7 30.29S  
WASHINGTON PTCLDY 48 46 91 NE7 30.29R  
GOLDSBORO PTCLDY 47 43 87 NE8 30.24R  
KINSTON CLEAR 48 46 93 NE8 30.27R  
NEW BERN PTCLDY 51 49 92 NE6 30.26R  
HAVELOCK NOT AVBL  
KENANSVILLE PTCLDY 46 45 93 MISG 30.25S  
RICHLANDS PTCLDY 48 46 93 NE8 30.24S  
CLINTON PTCLDY 50 48 92 NE5 30.25S  
ELIZABETHTOWN PTCLDY 46 46 97 NE5 30.23S  
WHITEVILLE CLOUDY 48 46 93 NE3 30.23R  
 

 
 
AMZ130-135-150-152-154-156-158-170-250-252-270-ANZ085-086-088-633-658-670-051400-  
MARINE OBSERVATIONS  
 
STATION/POSITION TIME TEMP WIND PRES WAVE SWELL
 
AIR SEA DIR/SP/G HT/PER HT/PER  
(UTC) (F) (DEG/KT/KT) (MB) (FT/S) (FT/S)  
64 E VA BEACH 1300 58 59 40/ 16/ 19 1025.6  
64 E VA BEACH 1230 59 59 N/A 4/ 5  
DUCK PIER 1248 57 56 40/ 20/ 23 1025.2  
2 E DUCK 1256 57 N/A 4/ 5  
10 NE DUCK 1226 57 N/A 4/ 4  
OREGON INLET 1236 60 61 60/ 15/ 20 1024.8  
13E OREGON INLT 1256 65 N/A 5/ 5 2/ 9  
13E CAPE HATTERA 1256 71 N/A 5/ 6  
HATTERAS CG 1248 59 59 40/ 8/ 13 1023.9  
DIAMOND BUOY 1310 71 72 70/ 12/ 16 1022.9  
CAPE LOOKOUT 1300 58 10/ 11/ 14 1023.8  
BEAUFORT LAB 1248 54 58 30/ 9/ 11 1023.9  
30 SE NEW RVR IN 1308 68 70 90/ 12/ 17 1022.5  
30 SE NEW RVR IN 1226 71 N/A 3/ 5  
27 SE WRIGHTSVLE 1308 68 66 80/ 10/ 16 1021.9  
5 SE WRIGHTSVLE 1208 59 58 70/ 12/ 17 1022.7  
27 SE WRIGHTSVL 1308 68 66 80/ 10/ 16 1021.9  
FRYING PAN BUOY 1310 66 71 80/ 6/ 8 1022.1  
225 S CAPE HAT 1300 73 74 180/ 8/ 10 1022.1  
41 SE CHARLESTON 1310 67 73 290/ 4/ 4 1022.6  
 

 
 
 
CLICK HERE TO GO TO PREVIOUS BULLETINS.

The Nexlab NC Page Main Text Page